| time (UTC) | temp F | wind direction | speed MPH | gust MPH | rain 1hr in | rain 24hr in | rain mn in | humidity % | barometer mb |
| 20260503023111 | 55 | 231 | 2.0 | 7.0 | 0.00 | 0.00 | 0.00 | 80 | 1007.3 |
| 20260503021534 | 56 | 245 | 5.0 | 10.0 | 0.00 | 0.00 | 0.00 | 80 | 1007.2 |
| 20260503020131 | 56 | 263 | 6.0 | 11.0 | 0.00 | 0.00 | 0.00 | 79 | 1007.2 |
| 20260503014553 | 57 | 278 | 3.0 | 8.0 | 0.00 | 0.00 | 0.00 | 78 | 1007.3 |
| 20260503013009 | 58 | 215 | 4.0 | 9.0 | 0.00 | 0.00 | 0.00 | 78 | 1007.2 |
| 20260503011609 | 58 | 238 | 8.0 | 15.0 | 0.00 | 0.00 | 0.00 | 77 | 1007.2 |
| 20260503010029 | 59 | 242 | 9.0 | 12.0 | 0.00 | 0.00 | 0.00 | 76 | 1007.2 |
| 20260503004619 | 60 | 249 | 6.0 | 14.0 | 0.00 | 0.00 | 0.00 | 76 | 1007.1 |
| 20260503003042 | 60 | 237 | 8.0 | 14.0 | 0.00 | 0.00 | 0.00 | 76 | 1007.2 |
| 20260503001502 | 59 | 276 | 7.0 | 15.0 | 0.00 | 0.00 | 0.00 | 76 | 1007.3 |
| 20260502234524 | 61 | 263 | 8.0 | 13.0 | 0.00 | 0.00 | 0.00 | 75 | 1007.3 |
| 20260502233112 | 61 | 273 | 7.0 | 17.0 | 0.00 | 0.00 | 0.00 | 76 | 1007.5 |
| 20260502231526 | 61 | 244 | 11.0 | 17.0 | 0.00 | 0.00 | 0.00 | 75 | 1007.5 |
| 20260502230119 | 62 | 210 | 9.0 | 16.0 | 0.00 | 0.00 | 0.00 | 74 | 1007.8 |
| 20260502224536 | 62 | 275 | 8.0 | 18.0 | 0.00 | 0.00 | 0.00 | 74 | 1007.9 |
| 20260502223132 | 62 | 227 | 8.0 | 13.0 | 0.00 | 0.00 | 0.00 | 74 | 1008.2 |
| 20260502221548 | 61 | 257 | 8.0 | 15.0 | 0.00 | 0.00 | 0.00 | 76 | 1008.4 |
| 20260502220012 | 61 | 236 | 10.0 | 19.0 | 0.00 | 0.00 | 0.00 | 75 | 1008.7 |
| 20260502214558 | 62 | 245 | 10.0 | 19.0 | 0.00 | 0.00 | 0.00 | 76 | 1008.8 |
| 20260502213016 | 61 | 239 | 8.0 | 16.0 | 0.00 | 0.00 | 0.00 | 76 | 1008.9 |
| 20260502211610 | 61 | 204 | 9.0 | 16.0 | 0.00 | 0.00 | 0.00 | 76 | 1009.0 |
| 20260502210032 | 60 | 184 | 8.0 | 18.0 | 0.00 | 0.00 | 0.00 | 78 | 1009.2 |
| 20260502204621 | 60 | 218 | 8.0 | 19.0 | 0.00 | 0.00 | 0.00 | 78 | 1009.4 |
| 20260502203035 | 60 | 215 | 10.0 | 19.0 | 0.00 | 0.00 | 0.00 | 78 | 1009.6 |
| 20260502201627 | 60 | 235 | 9.0 | 18.0 | 0.00 | 0.00 | 0.00 | 78 | 1009.7 |
| 20260502200048 | 58 | 248 | 11.0 | 20.0 | 0.00 | 0.00 | 0.00 | 79 | 1010.1 |
| 20260502194503 | 58 | 264 | 5.0 | 18.0 | 0.00 | 0.00 | 0.00 | 82 | 1010.2 |
| 20260502193058 | 57 | 236 | 10.0 | 15.0 | 0.00 | 0.00 | 0.00 | 82 | 1010.4 |
| 20260502191519 | 56 | 210 | 8.0 | 13.0 | 0.00 | 0.00 | 0.00 | 84 | 1010.5 |
| 20260502190110 | 56 | 188 | 9.0 | 13.0 | 0.00 | 0.00 | 0.00 | 83 | 1010.4 |
| 20260502184525 | 56 | 176 | 8.0 | 12.0 | 0.00 | 0.00 | 0.00 | 84 | 1010.5 |
| 20260502183124 | 56 | 267 | 8.0 | 13.0 | 0.00 | 0.00 | 0.00 | 84 | 1010.5 |
| 20260502181544 | 56 | 219 | 5.0 | 9.0 | 0.00 | 0.00 | 0.00 | 85 | 1010.5 |
| 20260502180133 | 56 | 248 | 5.0 | 9.0 | 0.00 | 0.00 | 0.00 | 85 | 1010.4 |
| 20260502163035 | 55 | 163 | 4.0 | 6.0 | 0.00 | 0.00 | 0.00 | 86 | 1010.1 |
| 20260502161624 | 55 | 226 | 4.0 | 10.0 | 0.00 | 0.00 | 0.00 | 86 | 1010.1 |
| 20260502151517 | 54 | 231 | 7.0 | 13.0 | 0.00 | 0.00 | 0.00 | 88 | 1009.8 |
| 20260502150111 | 54 | 196 | 5.0 | 9.0 | 0.00 | 0.00 | 0.00 | 89 | 1009.8 |
| 20260502123044 | 49 | 186 | 0.0 | 3.0 | 0.00 | 0.00 | 0.00 | 91 | 1008.9 |
| 20260502121631 | 49 | 186 | 1.0 | 3.0 | 0.00 | 0.00 | 0.00 | 90 | 1008.8 |
| 20260502114502 | 50 | 206 | 1.0 | 3.0 | 0.00 | 0.00 | 0.00 | 91 | 1009.0 |
| 20260502113059 | 50 | 244 | 1.0 | 3.0 | 0.00 | 0.00 | 0.00 | 91 | 1009.0 |
| 20260502111521 | 50 | 245 | 0.0 | 3.0 | 0.00 | 0.00 | 0.00 | 91 | 1009.0 |
| 20260502110115 | 49 | 227 | 2.0 | 3.0 | 0.00 | 0.00 | 0.00 | 91 | 1009.0 |
| 20260502104532 | 49 | 172 | 1.0 | 4.0 | 0.00 | 0.00 | 0.00 | 90 | 1009.0 |
| 20260502103127 | 49 | 136 | 3.0 | 6.0 | 0.00 | 0.00 | 0.00 | 90 | 1008.9 |
| 20260502101546 | 49 | 160 | 1.0 | 5.0 | 0.00 | 0.00 | 0.00 | 90 | 1009.1 |
| 20260502070052 | 50 | 184 | 2.0 | 6.0 | 0.00 | 0.00 | 0.00 | 89 | 1010.0 |
| 20260502064507 | 50 | 150 | 3.0 | 6.0 | 0.00 | 0.00 | 0.00 | 89 | 1010.2 |
| 20260502063101 | 50 | 194 | 2.0 | 4.0 | 0.00 | 0.00 | 0.00 | 88 | 1010.2 |
| 20260502061520 | 51 | 200 | 1.0 | 4.0 | 0.00 | 0.00 | 0.00 | 87 | 1010.2 |
| 20260502060115 | 52 | 200 | 3.0 | 6.0 | 0.00 | 0.00 | 0.00 | 87 | 1010.1 |
| 20260502054542 | 52 | 207 | 3.0 | 7.0 | 0.00 | 0.00 | 0.00 | 87 | 1010.1 |
| 20260502053127 | 52 | 184 | 3.0 | 6.0 | 0.00 | 0.00 | 0.00 | 87 | 1010.2 |
| 20260502051547 | 52 | 192 | 3.0 | 7.0 | 0.00 | 0.00 | 0.00 | 86 | 1010.1 |
| 20260502050008 | 53 | 175 | 2.0 | 7.0 | 0.00 | 0.00 | 0.00 | 86 | 1010.1 |
| 20260502044601 | 53 | 207 | 6.0 | 9.0 | 0.00 | 0.00 | 0.00 | 86 | 1010.0 |
| 20260502043017 | 54 | 205 | 2.0 | 5.0 | 0.00 | 0.00 | 0.00 | 85 | 1009.8 |
| 20260502041613 | 54 | 213 | 1.0 | 5.0 | 0.00 | 0.00 | 0.00 | 85 | 1009.6 |
| 20260502040031 | 55 | 198 | 3.0 | 9.0 | 0.00 | 0.00 | 0.00 | 85 | 1009.4 |
| 20260502034627 | 55 | 184 | 3.0 | 7.0 | 0.00 | 0.00 | 0.00 | 84 | 1009.0 |
| 20260502033046 | 56 | 177 | 3.0 | 11.0 | 0.00 | 0.00 | 0.00 | 84 | 1008.8 |
| 20260502031504 | 56 | 175 | 6.0 | 9.0 | 0.00 | 0.00 | 0.00 | 83 | 1008.8 |
| 20260502030058 | 56 | 202 | 5.0 | 10.0 | 0.00 | 0.00 | 0.00 | 82 | 1008.6 |
| 20260502024519 | 57 | 200 | 8.0 | 12.0 | 0.00 | 0.00 | 0.00 | 82 | 1008.4 |